Regional Weather Roundup
Issued by NWS Grand Forks, ND

Home | Current Version | Previous Version | Text Only | Print | Product List | Glossary On
Versions: 1 2 3 4 5 6 7 8 9 10 11 12 13 14 15 16 17 18 19 20 21 22 23 24 25 26 27 28 29 30 31 32 33 34 35 36 37 38 39 40 41 42 43 44 45 46 47 48 49 50
000
ASUS43 KFGF 232031
RWRFGF
PRAIRIE TO PINES  WEATHER ROUNDUP
NATIONAL WEATHER SERVICE EASTERN NORTH DAKOTA/GRAND FORKS ND
300 PM CDT SUN JUL 23 2017

 **SATELLITE DATA USED TO AUGMENT SKY COVER AT AUTOMATED STATIONS**
 *****  WEATHER ACROSS EASTERN NORTH DAKOTA  *****

CITY           SKY/WX    TMP DP  RH WIND       PRES   REMARKS
GRAND FORKS    PTSUNNY   76  61  59 CALM      30.00F
GRAND FRKS AFB PTSUNNY   75  61  62 NW3       30.02S
DEVILS LAKE    FAIR      75  57  53 VRB5      30.04F
FARGO          PTSUNNY   74  61  63 VRB6      30.01F
WAHPETON ARPT  MOCLDY    72  57  60 N7        30.02S
$$

 ***** WEATHER ACROSS CENTRAL AND WESTERN NORTH DAKOTA  *****

CITY           SKY/WX    TMP DP  RH WIND       PRES   REMARKS
BISMARCK       FAIR      83  55  38 CALM      30.02F
MINOT          FAIR      83  50  31 SE8       30.00F
JAMESTOWN      FAIR      78  58  49 N5        30.03S
MINOT AFB      FAIR      80  53  38 CALM      29.99F
GARRISON         N/A     80  55  42 SE8       30.01F
WILLISTON      FAIR      91  50  24 SE7       29.97F
DICKINSON      FAIR      86  50  28 VRB7      30.01F
HETTINGER      FAIR      88  46  23 VRB6      30.04F
$$

 *****  OTHER AIRPORT OBSERVATIONS IN OUR AREA  *****

CITY           SKY/WX    TMP DP  RH WIND       PRES   REMARKS
WALHALLA       NOT AVBL
GRAFTON AIRPOR FAIR      77  61  57 CALM      30.02S
VALLEY CITY AR FAIR      77  59  53 N8        30.04S
CANDO          NOT AVBL
CAVALIER APRT  FAIR      77  63  61 SE3       30.00S
GWINNER        PTCLDY    75  61  60 NE6G13    30.03S
ROLLA            N/A     75  57  53 VRB3      30.04S
 ***** THE ABOVE OBSERVATIONS ARE NON NWS ARE NOT QUALITY
       CONTROLLED AND MAY MIS-REPORT RAIN FOR SNOW...
$$

  *****  WEATHER ACROSS NORTHERN MINNESOTA  *****

CITY           SKY/WX    TMP DP  RH WIND       PRES   REMARKS
FLAG ISLAND    FAIR      75  57  53 CALM      30.01R HAZE
WARROAD        FAIR      73  63  68 NE7       30.02S
ROSEAU         FAIR      77  61  57 NE6       30.01S
HALLOCK        PTSUNNY   75  63  64 CALM      29.99S
THF RVR FALLS  FAIR      74  59  59 SE6       30.02S
BAUDETTE       FAIR      74  55  51 SE3       30.00S
WASKISH        FAIR      79  57  47 NW3       30.00R
CROOKSTON      FAIR      75  63  64 NW3       30.00F
STEPHEN NDAWN    N/A     75  61  60 N2          N/A
GREENBUSH NDAW   N/A     75  61  60 S3          N/A
$$
  *****  WEATHER ACROSS CENTRAL AND WEST MINNESOTA  *****

CITY           SKY/WX    TMP DP  RH WIND       PRES   REMARKS
FOSSTON        PTSUNNY   75  63  64 CALM      30.02S
BEMIDJI        FAIR      70  57  62 E3        30.02S
PARK RAPIDS    CLOUDY    73  58  59 NE9       30.01R
ELBOW LAKE     MOCLDY    71  60  70 NW9       30.02F
WADENA         PTSUNNY   73  59  60 N6        30.00S
DETROIT LAKES  PTSUNNY   72  59  64 NE5       30.03S
MOORHEAD       FAIR      73  61  64 NW6       30.02S
FERGUS FALLS   PTSUNNY   72  61  68 W5        30.01S
MORRIS MN      FAIR      75  57  53 N8        30.00F
STAPLES        CLOUDY    73  57  56 NE8       30.00S
$$
  *****  WEATHER ELSEWHERE ACROSS MINNESOTA  *****

CITY           SKY/WX    TMP DP  RH WIND       PRES   REMARKS
DULUTH         CLOUDY    61  59  93 SE7       30.02R
INTRNTL FALLS  FAIR      75  53  46 NE6       30.00S
ELY            PTSUNNY   72  52  49 NE6       30.00R
CLOQUET        CLOUDY    66  57  72 E8        30.01R
WHEATON        CLOUDY    72  57  60 N8        30.03F
BRAINERD       PTSUNNY   71  58  63 N8        30.00R
HIBBING        CLOUDY    69  59  70 NE8       30.00S
ALEXANDRIA     PTSUNNY   74  59  59 N8        30.02S
SAINT CLOUD    CLOUDY    72  61  68 N10       29.97R
MINNEAPOLIS    PTSUNNY   75  59  57 N12       29.94S
$$

  *****  WEATHER ACROSS SOUTH DAKOTA  *****

CITY           SKY/WX    TMP DP  RH WIND       PRES   REMARKS
SIOUX FALLS    FAIR      80  61  52 N14G21    30.00F
BROOKINGS      FAIR      75  60  59 NW12      30.02S
WATERTOWN      PTSUNNY   74  60  61 NW10G18   30.02S
HURON          FAIR      79  60  52 N9        30.01F
SISSETON         N/A     75  62  64 N12       30.02R
ABERDEEN       FAIR      80  58  46 N10       30.02F
MITCHELL       FAIR      81  59  47 N12       30.02F
PIERRE         FAIR      86  49  27 MISG      30.01F
MOBRIDGE       FAIR      82  58  43 VRB6      30.02S
RAPID CITY     FAIR      89  46  22 SE14G20   30.06F
$$

  *****  SOME WEATHER IN NEARBY STATES *****

CITY           SKY/WX    TMP DP  RH WIND       PRES   REMARKS
GLASGOW MT     FAIR      94  41  16 SE8G17    29.89F HX  90
GREAT FALLS MT FAIR      92  38  15 SW10G16   29.94F
CHEYENNE WY    FAIR      89  43  20 VRB7      30.22F
SCOTTSBLUFF NE FAIR      93  55  27 E10       30.07F HX  91
OMAHA NE       FAIR      90  61  37 N16       29.95R HX  90
DES MOINES IA  FAIR      88  58  36 NW18G24   29.90F
DAVENPORT IA   FAIR      85  67  54 W18G25    29.84F
CHICAGO IL     FAIR      88  62  41 W8        29.78S
EAU CLAIRE WI  PTSUNNY   73  59  61 N12G23    29.91R
LA CROSSE WI   PTSUNNY   81  63  54 N16       29.86R
$$

  *****  SOME NATIONAL WEATHER *****

CITY           SKY/WX    TMP DP  RH WIND       PRES   REMARKS
LA GUARDIA NY  CLOUDY    76  70  82 NE8       29.81F
RALEIGH NC     FAIR     100  65  31 W7        29.81F HX 103
ATLANTA GA     FAIR      90  71  53 S8        29.91F HX  96
NEW ORLEANS LA FAIR      83  73  72 W14       29.99S
OKLAHOMA CITY  FAIR      96  69  41 VRB7      29.90F HX 102
ALBUQUERQUE NM PTSUNNY   85  53  33 SE18      30.16F
SALT LAKE CITY FAIR      95  47  19 NW7G16    30.03F HX  91
LOS ANGELES CA FAIR      75  66  73 W10       29.87F
BOISE ID       FAIR      92  46  20 VRB6      29.97F
SEATTLE WA     CLOUDY    71  57  61 NW9       30.08F
$$

*** WEATHER ACROSS MANITOBA...SASKATCHEWAN AND ONTARIO ***
                ***ONTARIO***

CITY           SKY/WX    TMP DP  RH WIND       PRES   REMARKS
GERALDTON      MOSUNNY   73  48  40 VRB6      29.97S
THUNDER BAY    MOSUNNY   72  52  49 E9        29.97S
SIOUX LOOKOUT  PTSUNNY   77  52  41 S5        29.99S
TORONTO        CLOUDY    73  64  73 E13       29.77S
BIG TROUT LK   SUNNY     75  45  33 S3        29.95F
PICKLE LAKE    MOSUNNY   79  41  25 VRB5      29.97F
DRYDEN         SUNNY     75  48  38 VRB2      30.00S
KENORA         PTSUNNY   75  52  43 CALM      30.01F
$$
                *** MANITOBA***

CITY           SKY/WX    TMP DP  RH WIND       PRES   REMARKS
BRANDON        MOSUNNY   75  61  60 W10       30.00F
DAUPHIN        SUNNY     79  59  50 W7        29.95F
ISLAND LAKE    PTSUNNY   81  45  28 SW10      29.90F
PILOT MOUND      N/A     75  57  53 SW3         N/A
THE PAS        PTSUNNY   77  57  50 SW8       29.85F
THOMPSON       CLOUDY    79  50  36 SW9       29.80F
WINNIPEG       PTSUNNY   77  63  61 W5        29.99S
LYNN LAKE      PTSUNNY   63  59  88 CALM      29.76F
CHURCHILL      CLOUDY    77  55  47 W16G26    29.69R
GILLAM         CLOUDY    79  45  29 SW15G21   29.82S
$$
                ***SASKATCHEWAN***

CITY           SKY/WX    TMP DP  RH WIND       PRES   REMARKS
ESTEVAN        MOSUNNY   82  55  39 SW12      29.97F
KINDERSLEY     MOSUNNY   86  50  28 W8        29.83F
LLOYDMINSTER   PTSUNNY   77  55  47 E5        29.86F
PRINCE ALBERT  PTSUNNY   77  59  53 VRB3      29.86F
REGINA         PTSUNNY   86  50  28 S15G23    29.90F
YORKTON        SUNNY     79  57  47 S9        29.94F
N. BATTLEFORD  SUNNY     81  59  47 E6        29.85F
LA RONGE       MOSUNNY   79  59  50 SW10      29.79F
SASKATOON      PTSUNNY   82  61  47 SE8       29.85F
SWIFT CURRENT  SUNNY     88  48  25 W10G22    29.87F
$$
NOTE: THESE ARE AUTOMATED STATIONS WITH LIMITED QUALITY CONTROL
      "FAIR" INDICATES FEW OR NO CLOUDS BELOW 12,000 FEET WITH NO
      SIGNIFICANT WEATHER AND/OR OBSTRUCTIONS TO VISIBILITY.
      SKY/WX - SKY CONDITION AND SIGNIFICANT WEATHER.
      TMP - AIR TEMPERATURE.    DP   - DEWPOINT TEMPERATURE.
      RH  - RELATIVE HUMIDITY.  PRES - PRESSURE.
      HX  - HEAT INDEX.         WCI  - WIND CHILL INDEX.
$




USA.gov is the U.S. government's official web portal to all federal, state and local government web resources and services.